Regional Weather Roundup
Issued by NWS Northern Indiana

Home | Current Version | Previous Version | Text Only | Print | Product List | Glossary On
Versions: 1 2 3 4 5 6 7 8 9 10 11 12 13 14 15 16 17 18 19 20 21 22 23 24 25 26 27 28 29 30 31 32 33 34 35 36 37 38 39 40 41 42 43 44 45 46 47 48 49 50
917
ASUS43 KIWX 292010
RWRIWX

KIWX WEATHER ROUNDUP
NATIONAL WEATHER SERVICE NORTHERN INDIANA
400 PM EDT SUN MAY 29 2016

NOTE: "FAIR" INDICATES FEW OR NO CLOUDS BELOW 12,000 FEET WITH NO
SIGNIFICANT WEATHER AND/OR OBSTRUCTIONS TO VISIBILITY.

* THESE STATIONS ARE NOT UNDER NWS QUALITY CONTROL. THEY ALSO MAY NOT
  REPORT WEATHER SUCH AS PRECIPITATION OR FOG.

INZ001>027-292100-
NORTHERN INDIANA

CITY           SKY/WX    TMP DP  RH WIND       PRES   REMARKS
GARY*          MOSUNNY   82  64  54 W17G29    30.02F
VALPARAISO     SUNNY     83  56  39 W16G28    30.02S
MICHIGAN CITY* MOSUNNY   79  59  50 W12G22    30.02S
LAPORTE*       MOSUNNY   84  58  41 W10G23    30.01F
KNOX*            N/A     82  37  20 W17G25    30.00S
SOUTH BEND     PTSUNNY   80  59  48 W13G21    30.00S
ELKHART*       MOSUNNY   82  61  47 MISG      30.00F
GOSHEN         MOSUNNY   84  54  35 SW16G24   30.00F
MONTICELLO*    MOSUNNY   86  46  24 W18G25    30.01F
LOGANSPORT*    PTSUNNY   82  54  36 W20G25    30.03F
ROCHESTER*     SUNNY     88  54  31 W15G24    30.02S
WARSAW*        MOSUNNY   84  54  34 W16G22    30.01F
ANGOLA*          N/A     88  84  89 W13       29.99F HX 112
FORT WAYNE     PTSUNNY   88  56  33 W22       30.00F
HUNTINGTON*    SUNNY     84  57  38 W13G22    30.01F
PERU/GRISSOM   SUNNY     85  55  35 W20G26    30.01F
MARION*        CLOUDY    86  57  37 W17       30.02F

$$
INZ028>050-292100-
CENTRAL INDIANA

CITY           SKY/WX    TMP DP  RH WIND       PRES   REMARKS
LAFAYETTE      MOSUNNY   85  55  35 W17       30.02F
KOKOMO*        MOSUNNY   86  61  42 W14G23    30.02F
MUNCIE*        MOSUNNY   88  59  37 SW9G18    30.02F
INDIANAPOLIS   PTSUNNY   85  63  47 SW12      30.03F

$$
MIZ043>046-050>051-056>058-064>065-071>073-077>080-292100-
SOUTHWEST LOWER MICHIGAN

CITY           SKY/WX    TMP DP  RH WIND       PRES   REMARKS
BATTLE CREEK   MOSUNNY   81  56  42 SW17      29.98F
BENTON HARBOR  SUNNY     76  59  55 W14G23    30.00F
COLDWATER*     MOSUNNY   84  52  32 SW17G28   29.99S
HILLSDALE*     MOSUNNY   84  47  27 SW18G24   29.99F
HOLLAND        SUNNY     77  60  55 W17G26    30.00S
GRAND RAPIDS   PTSUNNY   82  58  43 W21G38    29.97F
KALAMAZOO      MOSUNNY   83  57  41 W16G25    29.98F
STURGIS*       PTSUNNY   82  54  37 SW17G25   29.99S
THREE RIVERS*  FAIR      83  52  34 W13G22    29.99F

$$
OHZ001>008-015>018-024>025-292100-
NORTHWEST OHIO

CITY           SKY/WX    TMP DP  RH WIND       PRES   REMARKS
WAUSEON*         N/A     86  84  94 W14G22    29.97F HX 108
DEFIANCE       MOSUNNY   88  58  36 SW13G23   29.97F
FINDLAY        MOSUNNY   86  64  47 S18G24    29.99F
TOLEDO EXPRESS MOSUNNY   89  59  36 SW16G23   29.96F
TOLEDO METCALF MOSUNNY   89  61  38 SW18G26   29.97F
LIMA           MOSUNNY   85  64  49 SW14G20   30.01F

$$
AND FOR LAKE MICHIGAN COASTAL AND OPEN LAKE BUOY OBSERVATIONS

STATION/POSITION TEMP    WIND        PRES    VSBY  WAVE
                 AIR SEA DIR/SP/G                  HT/PER
                 (F)     (DEG/KT/KT) (MB)    (MI)  (FT/S)
CALUMET HARBOR    78     240/ 11/ 20 1015.7S
MICHIGAN CITY     63     210/  7/  8   N/A
BURNS HARBOR      68     280/ 13/ 24 1016.6S
SAINT JOSEPH      69     230/  6/  8 1016.9F
SOUTH LAKE BUOY   57 51  180/  8/  8 1015.1F         1
4 MI NW BRIDGMAN  63 62  280/  8/ 10   N/A           1/ 2
MICHIGAN CITY     63 58  280/  8/ 10   N/A           2/ 3

$$
&&




USA.gov is the U.S. government's official web portal to all federal, state and local government web resources and services.